Time,TemperatureF,DewpointF,PressureIn,WindDirection,WindDirectionDegrees,WindSpeedMPH,WindSpeedGustMPH,Humidity,HourlyPrecipIn,Conditions,Clouds,dailyrainin,SolarRadiationWatts/m^2,SoftwareType,DateUTC
2013-05-13 00:00:00,56.5,32.0,29.94,East,88,0.0,-999.0,32,-99.99,,,0.00,0.0,cwc,2013-05-13 06:00:00,
2013-05-13 00:05:00,56.3,31.8,29.94,East,88,0.0,-999.0,32,-99.99,,,0.00,0.0,cwc,2013-05-13 06:05:00,
2013-05-13 00:10:00,56.0,31.5,29.94,East,88,0.0,-999.0,32,-99.99,,,0.00,0.0,cwc,2013-05-13 06:10:00,
2013-05-13 00:15:00,56.7,32.9,29.94,East,88,0.0,-999.0,34,-99.99,,,0.00,0.0,cwc,2013-05-13 06:15:00,
2013-05-13 00:20:00,55.9,31.4,29.93,East,88,0.0,-999.0,32,-99.99,,,0.00,0.0,cwc,2013-05-13 06:20:00,
2013-05-13 00:25:00,55.4,31.3,29.93,East,88,0.0,-999.0,33,-99.99,,,0.00,0.0,cwc,2013-05-13 06:25:00,
2013-05-13 00:30:00,55.1,31.0,29.93,East,88,0.0,-999.0,33,-99.99,,,0.00,0.0,cwc,2013-05-13 06:30:00,
2013-05-13 00:35:00,55.0,31.2,29.95,East,88,0.0,-999.0,34,-99.99,,,0.00,0.0,cwc,2013-05-13 06:35:00,
2013-05-13 00:40:00,54.7,30.9,29.95,East,88,0.0,-999.0,34,-99.99,,,0.00,0.0,cwc,2013-05-13 06:40:00,
2013-05-13 00:45:00,54.5,32.5,29.95,East,88,0.0,-999.0,39,-99.99,,,0.00,0.0,cwc,2013-05-13 06:45:00,
2013-05-13 00:50:00,54.1,30.7,29.94,East,88,0.0,-999.0,35,-99.99,,,0.00,0.0,cwc,2013-05-13 06:50:00,
2013-05-13 00:55:00,54.1,30.7,29.94,East,88,0.0,-999.0,35,-99.99,,,0.00,0.0,cwc,2013-05-13 06:55:00,
2013-05-13 01:00:00,53.9,30.5,29.94,East,88,0.0,-999.0,35,-99.99,,,0.00,0.0,cwc,2013-05-13 07:00:00,
2013-05-13 01:05:00,53.6,30.2,29.95,East,88,0.0,-999.0,35,-99.99,,,0.00,0.0,cwc,2013-05-13 07:05:00,
2013-05-13 01:10:00,53.5,30.1,29.95,East,88,0.0,-999.0,35,-99.99,,,0.00,0.0,cwc,2013-05-13 07:10:00,
2013-05-13 01:15:00,53.3,30.3,29.95,East,88,0.0,-999.0,36,-99.99,,,0.00,0.0,cwc,2013-05-13 07:15:00,
2013-05-13 01:20:00,53.5,30.1,29.94,ENE,69,6.0,-999.0,35,-99.99,,,0.00,0.0,cwc,2013-05-13 07:20:00,
2013-05-13 01:25:00,53.8,30.4,29.94,ENE,69,2.0,-999.0,35,-99.99,,,0.00,0.0,cwc,2013-05-13 07:25:00,
2013-05-13 01:30:00,53.8,30.4,29.94,ENE,69,0.0,-999.0,35,-99.99,,,0.00,0.0,cwc,2013-05-13 07:30:00,
2013-05-13 01:35:00,53.8,30.4,29.93,ENE,69,0.0,-999.0,35,-99.99,,,0.00,0.0,cwc,2013-05-13 07:35:00,
2013-05-13 01:40:00,53.8,39.4,29.93,ENE,69,0.0,-999.0,60,-99.99,,,0.00,0.0,cwc,2013-05-13 07:40:00,
2013-05-13 01:45:00,53.6,31.6,29.93,ENE,69,0.0,-999.0,39,-99.99,,,0.00,0.0,cwc,2013-05-13 07:45:00,
2013-05-13 01:50:00,53.8,34.0,29.93,ENE,69,0.0,-999.0,45,-99.99,,,0.00,0.0,cwc,2013-05-13 07:50:00,
2013-05-13 01:55:00,53.1,29.7,29.93,ENE,69,0.0,-999.0,35,-99.99,,,0.00,0.0,cwc,2013-05-13 07:55:00,
2013-05-13 02:00:00,52.5,34.1,29.93,ENE,69,0.0,-999.0,49,-99.99,,,0.00,0.0,cwc,2013-05-13 08:00:00,
2013-05-13 02:05:00,51.6,28.2,29.94,ENE,69,0.0,-999.0,35,-99.99,,,0.00,0.0,cwc,2013-05-13 08:05:00,
2013-05-13 02:10:00,50.8,28.1,29.94,ENE,69,0.0,-999.0,37,-99.99,,,0.00,0.0,cwc,2013-05-13 08:10:00,
2013-05-13 02:15:00,49.9,28.3,29.94,ENE,69,0.0,-999.0,40,-99.99,,,0.00,0.0,cwc,2013-05-13 08:15:00,
2013-05-13 02:20:00,50.8,28.1,29.94,ENE,69,0.0,-999.0,37,-99.99,,,0.00,0.0,cwc,2013-05-13 08:20:00,
2013-05-13 02:25:00,50.7,40.3,29.94,ENE,69,0.0,-999.0,71,-99.99,,,0.00,0.0,cwc,2013-05-13 08:25:00,
2013-05-13 02:30:00,48.9,27.3,29.94,ENE,69,0.0,-999.0,40,-99.99,,,0.00,0.0,cwc,2013-05-13 08:30:00,
2013-05-13 02:35:00,49.1,34.0,29.96,ENE,69,0.0,-999.0,58,-99.99,,,0.00,0.0,cwc,2013-05-13 08:35:00,
2013-05-13 02:40:00,49.9,31.5,29.96,ENE,69,0.0,-999.0,49,-99.99,,,0.00,0.0,cwc,2013-05-13 08:40:00,
2013-05-13 02:45:00,48.3,28.5,29.96,ENE,69,0.0,-999.0,45,-99.99,,,0.00,0.0,cwc,2013-05-13 08:45:00,
2013-05-13 02:50:00,47.7,27.5,29.96,ENE,69,0.0,-999.0,44,-99.99,,,0.00,0.0,cwc,2013-05-13 08:50:00,
2013-05-13 02:55:00,47.1,25.9,29.96,ENE,69,0.0,-999.0,41,-99.99,,,0.00,0.0,cwc,2013-05-13 08:55:00,
2013-05-13 03:00:00,46.8,27.7,29.96,ENE,69,0.0,-999.0,47,-99.99,,,0.00,0.0,cwc,2013-05-13 09:00:00,
2013-05-13 03:05:00,46.5,25.6,29.97,ENE,69,0.0,-999.0,42,-99.99,,,0.00,0.0,cwc,2013-05-13 09:05:00,
2013-05-13 03:10:00,46.5,27.4,29.97,ENE,69,0.0,-999.0,47,-99.99,,,0.00,0.0,cwc,2013-05-13 09:10:00,
2013-05-13 03:15:00,46.4,27.3,29.97,ENE,69,0.0,-999.0,47,-99.99,,,0.00,0.0,cwc,2013-05-13 09:15:00,
2013-05-13 03:25:00,47.0,35.8,30.01,ENE,69,0.0,-999.0,69,-99.99,,,0.00,0.0,cwc,2013-05-13 09:25:00,
2013-05-13 03:30:00,45.4,26.0,30.01,ENE,69,0.0,-999.0,46,-99.99,,,0.00,0.0,cwc,2013-05-13 09:30:00,
2013-05-13 03:35:00,44.8,26.4,30.02,ENE,69,0.0,-999.0,49,-99.99,,,0.00,0.0,cwc,2013-05-13 09:35:00,
2013-05-13 03:40:00,46.0,27.3,30.02,ENE,69,0.0,-999.0,48,-99.99,,,0.00,0.0,cwc,2013-05-13 09:40:00,
2013-05-13 03:45:00,44.5,25.8,30.02,ENE,69,0.0,-999.0,48,-99.99,,,0.00,0.0,cwc,2013-05-13 09:45:00,
2013-05-13 03:50:00,48.5,30.1,30.02,ENE,69,0.0,-999.0,49,-99.99,,,0.00,0.0,cwc,2013-05-13 09:50:00,
2013-05-13 03:55:00,45.1,34.7,30.02,ENE,69,0.0,-999.0,71,-99.99,,,0.00,0.0,cwc,2013-05-13 09:55:00,
2013-05-13 04:00:00,44.3,27.0,30.02,ENE,69,0.0,-999.0,52,-99.99,,,0.00,0.0,cwc,2013-05-13 10:00:00,
2013-05-13 04:05:00,44.1,27.2,30.04,ENE,69,0.0,-999.0,53,-99.99,,,0.00,0.0,cwc,2013-05-13 10:05:00,
2013-05-13 04:10:00,44.2,25.8,30.04,ENE,69,0.0,-999.0,49,-99.99,,,0.00,0.0,cwc,2013-05-13 10:10:00,
2013-05-13 04:15:00,42.9,26.3,30.04,ENE,69,0.0,-999.0,54,-99.99,,,0.00,0.0,cwc,2013-05-13 10:15:00,
2013-05-13 04:20:00,43.1,26.5,30.06,ENE,69,0.0,-999.0,54,-99.99,,,0.00,0.0,cwc,2013-05-13 10:20:00,
2013-05-13 04:25:00,42.8,27.0,30.06,ENE,69,0.0,-999.0,56,-99.99,,,0.00,0.0,cwc,2013-05-13 10:25:00,
2013-05-13 04:30:00,43.9,28.4,30.06,ENE,69,0.0,-999.0,57,-99.99,,,0.00,0.0,cwc,2013-05-13 10:30:00,
2013-05-13 04:35:00,42.8,25.9,30.06,ENE,69,0.0,-999.0,53,-99.99,,,0.00,0.0,cwc,2013-05-13 10:35:00,
2013-05-13 04:40:00,42.3,26.1,30.06,ENE,69,0.0,-999.0,55,-99.99,,,0.00,0.0,cwc,2013-05-13 10:40:00,
2013-05-13 04:45:00,41.9,25.3,30.06,ENE,69,0.0,-999.0,54,-99.99,,,0.00,0.0,cwc,2013-05-13 10:45:00,
2013-05-13 04:50:00,42.1,25.9,30.06,ENE,69,0.0,-999.0,55,-99.99,,,0.00,0.0,cwc,2013-05-13 10:50:00,
2013-05-13 04:55:00,42.2,26.0,30.06,ENE,69,0.0,-999.0,55,-99.99,,,0.00,0.0,cwc,2013-05-13 10:55:00,
2013-05-13 05:00:00,41.6,25.0,30.06,ENE,69,0.0,-999.0,54,-99.99,,,0.00,0.0,cwc,2013-05-13 11:00:00,
2013-05-13 05:05:00,42.8,32.4,30.06,ENE,69,0.0,-999.0,71,-99.99,,,0.00,0.0,cwc,2013-05-13 11:05:00,
2013-05-13 05:10:00,42.6,27.5,30.06,ENE,69,0.0,-999.0,58,-99.99,,,0.00,0.0,cwc,2013-05-13 11:10:00,
2013-05-13 05:15:00,43.9,28.4,30.06,ENE,69,0.0,-999.0,57,-99.99,,,0.00,0.0,cwc,2013-05-13 11:15:00,
2013-05-13 05:20:00,41.6,29.0,30.04,ENE,69,0.0,-999.0,65,-99.99,,,0.00,0.0,cwc,2013-05-13 11:20:00,
2013-05-13 05:25:00,41.5,27.1,30.04,ENE,69,0.0,-999.0,60,-99.99,,,0.00,0.0,cwc,2013-05-13 11:25:00,
2013-05-13 05:30:00,42.3,29.7,30.04,ENE,69,0.0,-999.0,65,-99.99,,,0.00,0.0,cwc,2013-05-13 11:30:00,
2013-05-13 05:35:00,41.5,26.0,30.07,ENE,69,0.0,-999.0,57,-99.99,,,0.00,0.0,cwc,2013-05-13 11:35:00,
2013-05-13 05:40:00,40.8,25.7,30.07,ENE,69,0.0,-999.0,58,-99.99,,,0.00,0.0,cwc,2013-05-13 11:40:00,
2013-05-13 05:45:00,40.6,30.2,30.07,ENE,69,0.0,-999.0,71,-99.99,,,0.00,0.0,cwc,2013-05-13 11:45:00,
2013-05-13 05:50:00,40.6,27.6,30.07,ENE,69,0.0,-999.0,64,-99.99,,,0.00,0.0,cwc,2013-05-13 11:50:00,
2013-05-13 05:55:00,40.3,27.7,30.07,ENE,69,0.0,-999.0,65,-99.99,,,0.00,0.0,cwc,2013-05-13 11:55:00,
2013-05-13 06:00:00,42.1,33.8,30.07,ENE,69,0.0,-999.0,77,-99.99,,,0.00,0.0,cwc,2013-05-13 12:00:00,
2013-05-13 06:05:00,42.6,30.7,30.07,ENE,69,0.0,-999.0,67,-99.99,,,0.00,0.0,cwc,2013-05-13 12:05:00,
2013-05-13 06:10:00,40.6,27.3,30.07,ENE,69,0.0,-999.0,63,-99.99,,,0.00,0.0,cwc,2013-05-13 12:10:00,
2013-05-13 06:15:00,41.2,26.8,30.07,ENE,69,0.0,-999.0,60,-99.99,,,0.00,0.0,cwc,2013-05-13 12:15:00,
2013-05-13 06:20:00,40.6,26.6,30.10,ENE,69,0.0,-999.0,61,-99.99,,,0.00,0.0,cwc,2013-05-13 12:20:00,
2013-05-13 06:25:00,39.6,25.9,30.10,ENE,69,0.0,-999.0,62,-99.99,,,0.00,0.0,cwc,2013-05-13 12:25:00,
2013-05-13 06:30:00,39.9,26.6,30.10,ENE,69,0.0,-999.0,63,-99.99,,,0.00,0.0,cwc,2013-05-13 12:30:00,
2013-05-13 06:35:00,42.9,29.6,30.10,ENE,69,0.0,-999.0,63,-99.99,,,0.00,0.0,cwc,2013-05-13 12:35:00,
2013-05-13 06:40:00,42.9,35.7,30.10,ENE,69,0.0,-999.0,80,-99.99,,,0.00,0.0,cwc,2013-05-13 12:40:00,
2013-05-13 06:45:00,42.1,29.9,30.10,ENE,69,0.0,-999.0,66,-99.99,,,0.00,0.0,cwc,2013-05-13 12:45:00,
2013-05-13 06:50:00,42.3,29.3,30.07,ENE,69,0.0,-999.0,64,-99.99,,,0.00,0.0,cwc,2013-05-13 12:50:00,
2013-05-13 06:55:00,42.2,28.2,30.07,ENE,69,0.0,-999.0,61,-99.99,,,0.00,0.0,cwc,2013-05-13 12:55:00,
2013-05-13 07:00:00,42.3,27.5,30.07,ENE,69,0.0,-999.0,59,-99.99,,,0.00,0.0,cwc,2013-05-13 13:00:00,
2013-05-13 07:05:00,42.8,27.3,30.08,ENE,69,0.0,-999.0,57,-99.99,,,0.00,0.0,cwc,2013-05-13 13:05:00,
2013-05-13 07:10:00,43.8,28.0,30.08,NE,47,0.0,-999.0,56,-99.99,,,0.00,0.0,cwc,2013-05-13 13:10:00,
2013-05-13 07:15:00,49.5,33.7,30.08,NE,47,0.0,-999.0,56,-99.99,,,0.00,0.0,cwc,2013-05-13 13:15:00,
2013-05-13 07:20:00,47.0,32.6,30.08,NE,47,0.0,-999.0,60,-99.99,,,0.00,0.0,cwc,2013-05-13 13:20:00,
2013-05-13 07:25:00,48.5,37.3,30.08,NE,47,0.0,-999.0,69,-99.99,,,0.00,0.0,cwc,2013-05-13 13:25:00,
2013-05-13 07:30:00,49.1,29.3,30.08,NE,47,0.0,-999.0,45,-99.99,,,0.00,0.0,cwc,2013-05-13 13:30:00,
2013-05-13 07:35:00,49.6,29.4,30.08,NE,47,0.0,-999.0,44,-99.99,,,0.00,0.0,cwc,2013-05-13 13:35:00,
2013-05-13 07:40:00,50.8,29.2,30.08,NE,47,0.0,-999.0,40,-99.99,,,0.00,0.0,cwc,2013-05-13 13:40:00,
2013-05-13 07:45:00,51.9,29.6,30.08,NE,47,0.0,-999.0,38,-99.99,,,0.00,0.0,cwc,2013-05-13 13:45:00,
2013-05-13 07:50:00,53.1,30.1,30.06,NNE,21,0.0,-999.0,36,-99.99,,,0.00,0.0,cwc,2013-05-13 13:50:00,
2013-05-13 07:55:00,53.8,30.8,30.06,NNE,21,0.0,-999.0,36,-99.99,,,0.00,0.0,cwc,2013-05-13 13:55:00,
2013-05-13 08:00:00,54.1,30.3,30.06,NNE,18,4.0,-999.0,34,-99.99,,,0.00,0.0,cwc,2013-05-13 14:00:00,
2013-05-13 08:05:00,54.5,30.7,30.06,NNE,18,0.0,-999.0,34,-99.99,,,0.00,0.0,cwc,2013-05-13 14:05:00,
2013-05-13 08:10:00,55.3,31.2,30.06,NNE,18,0.0,-999.0,33,-99.99,,,0.00,0.0,cwc,2013-05-13 14:10:00,
2013-05-13 08:15:00,56.6,32.1,30.06,NNE,18,2.0,-999.0,32,-99.99,,,0.00,0.0,cwc,2013-05-13 14:15:00,
2013-05-13 08:20:00,56.7,32.2,30.06,NNE,18,4.0,-999.0,32,-99.99,,,0.00,0.0,cwc,2013-05-13 14:20:00,
2013-05-13 08:25:00,58.0,32.8,30.06,NNE,18,0.0,-999.0,30,-99.99,,,0.00,0.0,cwc,2013-05-13 14:25:00,
2013-05-13 08:30:00,59.2,33.6,30.06,NNE,18,0.0,-999.0,29,-99.99,,,0.00,0.0,cwc,2013-05-13 14:30:00,
2013-05-13 08:35:00,59.2,33.3,30.05,NNE,18,0.0,-999.0,28,-99.99,,,0.00,0.0,cwc,2013-05-13 14:35:00,
2013-05-13 08:40:00,59.6,33.3,30.05,NNE,18,0.0,-999.0,27,-99.99,,,0.00,0.0,cwc,2013-05-13 14:40:00,
2013-05-13 08:45:00,60.2,33.9,30.05,NNE,18,0.0,-999.0,27,-99.99,,,0.00,0.0,cwc,2013-05-13 14:45:00,
2013-05-13 08:50:00,60.4,34.5,30.05,NNE,18,1.0,-999.0,28,-99.99,,,0.00,0.0,cwc,2013-05-13 14:50:00,
2013-05-13 08:55:00,61.2,34.9,30.05,NNE,18,0.0,-999.0,27,-99.99,,,0.00,0.0,cwc,2013-05-13 14:55:00,
2013-05-13 09:00:00,61.5,35.2,30.05,NNE,18,0.0,-999.0,27,-99.99,,,0.00,0.0,cwc,2013-05-13 15:00:00,
2013-05-13 09:05:00,63.1,39.7,30.04,NNE,18,0.0,-999.0,35,-99.99,,,0.00,0.0,cwc,2013-05-13 15:05:00,
2013-05-13 09:10:00,63.5,36.9,30.04,NNE,18,1.0,-999.0,26,-99.99,,,0.00,0.0,cwc,2013-05-13 15:10:00,
2013-05-13 09:15:00,63.7,36.7,30.04,NNE,18,0.0,-999.0,25,-99.99,,,0.00,0.0,cwc,2013-05-13 15:15:00,
2013-05-13 09:20:00,64.2,37.2,30.03,NNE,18,0.0,-999.0,25,-99.99,,,0.00,0.0,cwc,2013-05-13 15:20:00,
2013-05-13 09:25:00,66.0,38.6,30.03,NNE,18,0.0,-999.0,24,-99.99,,,0.00,0.0,cwc,2013-05-13 15:25:00,
2013-05-13 09:30:00,66.0,38.6,30.03,NNE,18,0.0,-999.0,24,-99.99,,,0.00,0.0,cwc,2013-05-13 15:30:00,
2013-05-13 09:35:00,66.4,38.7,30.01,NNE,18,0.0,-999.0,23,-99.99,,,0.00,0.0,cwc,2013-05-13 15:35:00,
2013-05-13 09:40:00,67.4,39.7,30.01,NNE,18,0.0,-999.0,23,-99.99,,,0.00,0.0,cwc,2013-05-13 15:40:00,
2013-05-13 09:45:00,67.4,39.7,30.01,NNE,18,0.0,-999.0,23,-99.99,,,0.00,0.0,cwc,2013-05-13 15:45:00,
2013-05-13 09:50:00,67.6,39.9,29.99,NNE,13,0.0,-999.0,23,-99.99,,,0.00,0.0,cwc,2013-05-13 15:50:00,
2013-05-13 09:55:00,68.3,40.2,29.99,NNE,13,0.0,-999.0,22,-99.99,,,0.00,0.0,cwc,2013-05-13 15:55:00,
2013-05-13 10:00:00,68.4,40.3,29.99,NNE,27,0.0,-999.0,22,-99.99,,,0.00,0.0,cwc,2013-05-13 16:00:00,
2013-05-13 10:05:00,68.8,40.7,29.97,NNE,13,4.0,-999.0,22,-99.99,,,0.00,0.0,cwc,2013-05-13 16:05:00,
2013-05-13 10:10:00,68.6,40.5,29.97,NNE,17,0.0,-999.0,22,-99.99,,,0.00,0.0,cwc,2013-05-13 16:10:00,
2013-05-13 10:15:00,69.9,41.5,29.97,NNE,17,0.0,-999.0,21,-99.99,,,0.00,0.0,cwc,2013-05-13 16:15:00,
2013-05-13 10:20:00,70.8,42.4,29.99,NNW,346,1.0,-999.0,21,-99.99,,,0.00,0.0,cwc,2013-05-13 16:20:00,
2013-05-13 10:25:00,72.0,43.2,29.99,WNW,296,0.0,-999.0,20,-99.99,,,0.00,0.0,cwc,2013-05-13 16:25:00,
2013-05-13 10:30:00,71.6,42.8,29.99,South,184,4.0,-999.0,20,-99.99,,,0.00,0.0,cwc,2013-05-13 16:30:00,
2013-05-13 10:35:00,71.8,42.6,29.97,South,186,0.0,-999.0,19,-99.99,,,0.00,0.0,cwc,2013-05-13 16:35:00,
2013-05-13 10:40:00,70.9,42.1,29.97,NNE,23,2.0,-999.0,20,-99.99,,,0.00,0.0,cwc,2013-05-13 16:40:00,
2013-05-13 10:45:00,71.8,43.0,29.97,NNE,23,0.0,-999.0,20,-99.99,,,0.00,0.0,cwc,2013-05-13 16:45:00,
2013-05-13 10:50:00,73.2,44.0,29.96,South,174,4.0,-999.0,19,-99.99,,,0.00,0.0,cwc,2013-05-13 16:50:00,
2013-05-13 10:55:00,74.2,44.7,29.96,SW,226,6.0,-999.0,18,-99.99,,,0.00,0.0,cwc,2013-05-13 16:55:00,
2013-05-13 11:00:00,73.9,44.4,29.96,WSW,258,0.0,-999.0,18,-99.99,,,0.00,0.0,cwc,2013-05-13 17:00:00,
2013-05-13 11:05:00,74.6,45.1,29.95,SW,220,0.0,-999.0,18,-99.99,,,0.00,0.0,cwc,2013-05-13 17:05:00,
2013-05-13 11:10:00,74.9,45.4,29.95,South,175,2.0,-999.0,18,-99.99,,,0.00,0.0,cwc,2013-05-13 17:10:00,
2013-05-13 11:15:00,74.2,44.7,29.95,SW,222,6.0,-999.0,18,-99.99,,,0.00,0.0,cwc,2013-05-13 17:15:00,
2013-05-13 11:20:00,74.0,44.5,29.95,South,174,7.0,-999.0,18,-99.99,,,0.00,0.0,cwc,2013-05-13 17:20:00,
2013-05-13 11:25:00,74.9,45.4,29.95,SSW,208,9.0,-999.0,18,-99.99,,,0.00,0.0,cwc,2013-05-13 17:25:00,
2013-05-13 11:30:00,75.3,45.8,29.95,WSW,237,4.0,-999.0,18,-99.99,,,0.00,0.0,cwc,2013-05-13 17:30:00,
2013-05-13 11:35:00,75.8,45.9,29.95,WSW,248,0.0,-999.0,17,-99.99,,,0.00,0.0,cwc,2013-05-13 17:35:00,
2013-05-13 11:40:00,75.1,45.2,29.95,SE,138,0.0,-999.0,17,-99.99,,,0.00,0.0,cwc,2013-05-13 17:40:00,
2013-05-13 11:45:00,76.1,45.9,29.95,SW,220,10.0,-999.0,16,-99.99,,,0.00,0.0,cwc,2013-05-13 17:45:00,
2013-05-13 11:50:00,76.1,45.9,29.92,SW,229,8.0,-999.0,16,-99.99,,,0.00,0.0,cwc,2013-05-13 17:50:00,
2013-05-13 11:55:00,77.4,47.2,29.92,SW,230,7.0,-999.0,16,-99.99,,,0.00,0.0,cwc,2013-05-13 17:55:00,
2013-05-13 12:00:00,77.0,46.8,29.92,South,179,6.0,-999.0,16,-99.99,,,0.00,0.0,cwc,2013-05-13 18:00:00,
2013-05-13 12:05:00,77.0,46.8,29.92,SSW,198,0.0,-999.0,16,-99.99,,,0.00,0.0,cwc,2013-05-13 18:05:00,
2013-05-13 12:10:00,77.7,47.5,29.92,West,260,1.0,-999.0,16,-99.99,,,0.00,0.0,cwc,2013-05-13 18:10:00,
2013-05-13 12:15:00,77.0,46.8,29.92,SW,223,8.0,-999.0,16,-99.99,,,0.00,0.0,cwc,2013-05-13 18:15:00,
2013-05-13 12:20:00,78.1,47.9,29.92,South,176,0.0,-999.0,16,-99.99,,,0.00,0.0,cwc,2013-05-13 18:20:00,
2013-05-13 12:25:00,77.7,47.5,29.92,South,184,10.0,-999.0,16,-99.99,,,0.00,0.0,cwc,2013-05-13 18:25:00,
2013-05-13 12:30:00,77.7,47.1,29.92,SSE,162,10.0,-999.0,15,-99.99,,,0.00,0.0,cwc,2013-05-13 18:30:00,
2013-05-13 12:35:00,79.2,49.0,29.90,WSW,240,2.0,-999.0,16,-99.99,,,0.00,0.0,cwc,2013-05-13 18:35:00,
2013-05-13 12:40:00,79.8,49.2,29.90,SSW,208,2.0,-999.0,15,-99.99,,,0.00,0.0,cwc,2013-05-13 18:40:00,
2013-05-13 12:45:00,80.9,50.3,29.90,SSE,154,0.0,-999.0,15,-99.99,,,0.00,0.0,cwc,2013-05-13 18:45:00,
2013-05-13 12:50:00,78.8,48.6,29.88,ESE,106,0.0,-999.0,16,-99.99,,,0.00,0.0,cwc,2013-05-13 18:50:00,
2013-05-13 12:55:00,79.2,48.2,29.88,South,189,2.0,-999.0,14,-99.99,,,0.00,0.0,cwc,2013-05-13 18:55:00,
2013-05-13 13:00:00,81.1,49.8,29.88,WSW,237,6.0,-999.0,13,-99.99,,,0.00,0.0,cwc,2013-05-13 19:00:00,
2013-05-13 13:05:00,80.1,49.1,29.88,East,100,4.0,-999.0,14,-99.99,,,0.00,0.0,cwc,2013-05-13 19:05:00,
2013-05-13 13:10:00,82.0,50.7,29.88,WNW,292,1.0,-999.0,13,-99.99,,,0.00,0.0,cwc,2013-05-13 19:10:00,
2013-05-13 13:15:00,81.8,50.5,29.88,WSW,246,0.0,-999.0,13,-99.99,,,0.00,0.0,cwc,2013-05-13 19:15:00,
2013-05-13 13:20:00,80.9,49.6,29.87,WSW,239,9.0,-999.0,13,-99.99,,,0.00,0.0,cwc,2013-05-13 19:20:00,
2013-05-13 13:25:00,82.0,50.7,29.87,NW,325,0.0,-999.0,13,-99.99,,,0.00,0.0,cwc,2013-05-13 19:25:00,
2013-05-13 13:30:00,82.0,50.7,29.87,WSW,248,8.0,-999.0,13,-99.99,,,0.00,0.0,cwc,2013-05-13 19:30:00,
2013-05-13 13:35:00,82.2,50.5,29.86,SW,223,9.0,-999.0,12,-99.99,,,0.00,0.0,cwc,2013-05-13 19:35:00,
2013-05-13 13:40:00,81.1,49.8,29.86,South,184,4.0,-999.0,13,-99.99,,,0.00,0.0,cwc,2013-05-13 19:40:00,
2013-05-13 13:45:00,81.6,50.6,29.86,SSW,205,9.0,-999.0,14,-99.99,,,0.00,0.0,cwc,2013-05-13 19:45:00,
2013-05-13 13:50:00,82.6,50.9,29.87,WNW,302,0.0,-999.0,12,-99.99,,,0.00,0.0,cwc,2013-05-13 19:50:00,
2013-05-13 13:55:00,82.0,50.7,29.87,WNW,285,8.0,-999.0,13,-99.99,,,0.00,0.0,cwc,2013-05-13 19:55:00,
2013-05-13 14:00:00,81.2,49.9,29.87,WSW,241,14.0,-999.0,13,-99.99,,,0.00,0.0,cwc,2013-05-13 20:00:00,
2013-05-13 14:05:00,81.6,50.3,29.86,WNW,284,8.0,-999.0,13,-99.99,,,0.00,0.0,cwc,2013-05-13 20:05:00,
2013-05-13 14:10:00,82.2,50.9,29.86,West,277,2.0,-999.0,13,-99.99,,,0.00,0.0,cwc,2013-05-13 20:10:00,
2013-05-13 14:15:00,82.6,50.9,29.86,SSW,209,7.0,-999.0,12,-99.99,,,0.00,0.0,cwc,2013-05-13 20:15:00,
2013-05-13 14:20:00,82.8,51.1,29.86,SW,227,10.0,-999.0,12,-99.99,,,0.00,0.0,cwc,2013-05-13 20:20:00,
2013-05-13 14:25:00,82.2,50.5,29.86,WSW,239,8.0,-999.0,12,-99.99,,,0.00,0.0,cwc,2013-05-13 20:25:00,
2013-05-13 14:30:00,83.0,51.3,29.86,SW,236,10.0,-999.0,12,-99.99,,,0.00,0.0,cwc,2013-05-13 20:30:00,
2013-05-13 14:35:00,82.4,50.7,29.86,SW,229,0.0,-999.0,12,-99.99,,,0.00,0.0,cwc,2013-05-13 20:35:00,
2013-05-13 14:40:00,81.6,49.6,29.86,NE,35,6.0,-999.0,11,-99.99,,,0.00,0.0,cwc,2013-05-13 20:40:00,
2013-05-13 14:45:00,82.0,50.3,29.86,WSW,240,17.0,-999.0,12,-99.99,,,0.00,0.0,cwc,2013-05-13 20:45:00,
2013-05-13 14:50:00,82.6,50.9,29.86,WSW,237,10.0,-999.0,12,-99.99,,,0.00,0.0,cwc,2013-05-13 20:50:00,
2013-05-13 14:55:00,84.0,52.3,29.86,South,174,1.0,-999.0,12,-99.99,,,0.00,0.0,cwc,2013-05-13 20:55:00,
2013-05-13 15:00:00,83.2,51.2,29.86,West,260,8.0,-999.0,11,-99.99,,,0.00,0.0,cwc,2013-05-13 21:00:00,
2013-05-13 15:10:00,84.5,52.5,29.84,WNW,296,2.0,-999.0,11,-99.99,,,0.00,0.0,cwc,2013-05-13 21:10:00,
2013-05-13 15:15:00,83.6,51.6,29.84,SW,234,13.0,-999.0,11,-99.99,,,0.00,0.0,cwc,2013-05-13 21:15:00,
2013-05-13 15:20:00,82.2,50.5,29.85,SW,219,14.0,-999.0,12,-99.99,,,0.00,0.0,cwc,2013-05-13 21:20:00,
2013-05-13 15:25:00,82.4,50.7,29.85,SW,226,9.0,-999.0,12,-99.99,,,0.00,0.0,cwc,2013-05-13 21:25:00,
2013-05-13 15:30:00,82.8,51.5,29.85,SSE,154,7.0,-999.0,13,-99.99,,,0.00,0.0,cwc,2013-05-13 21:30:00,
2013-05-13 15:35:00,81.8,50.5,29.86,South,169,7.0,-999.0,13,-99.99,,,0.00,0.0,cwc,2013-05-13 21:35:00,
2013-05-13 15:40:00,83.6,51.9,29.86,South,178,0.0,-999.0,12,-99.99,,,0.00,0.0,cwc,2013-05-13 21:40:00,
2013-05-13 15:45:00,85.9,53.9,29.86,NW,311,1.0,-999.0,11,-99.99,,,0.00,0.0,cwc,2013-05-13 21:45:00,
2013-05-13 15:50:00,84.9,53.2,29.82,North,356,0.0,-999.0,12,-99.99,,,0.00,0.0,cwc,2013-05-13 21:50:00,
2013-05-13 15:55:00,84.1,52.1,29.82,NW,309,7.0,-999.0,11,-99.99,,,0.00,0.0,cwc,2013-05-13 21:55:00,
2013-05-13 16:00:00,81.2,49.9,29.82,West,261,7.0,-999.0,13,-99.99,,,0.00,0.0,cwc,2013-05-13 22:00:00,
2013-05-13 16:05:00,82.0,50.3,29.84,SW,224,0.0,-999.0,12,-99.99,,,0.00,0.0,cwc,2013-05-13 22:05:00,
2013-05-13 16:10:00,83.6,52.3,29.84,WNW,294,2.0,-999.0,13,-99.99,,,0.00,0.0,cwc,2013-05-13 22:10:00,
2013-05-13 16:15:00,84.5,53.2,29.84,SW,222,2.0,-999.0,13,-99.99,,,0.00,0.0,cwc,2013-05-13 22:15:00,
2013-05-13 16:20:00,84.5,52.8,29.84,South,186,8.0,-999.0,12,-99.99,,,0.00,0.0,cwc,2013-05-13 22:20:00,
2013-05-13 16:25:00,83.6,52.3,29.84,ENE,61,7.0,-999.0,13,-99.99,,,0.00,0.0,cwc,2013-05-13 22:25:00,
2013-05-13 16:30:00,81.1,50.1,29.84,SE,127,16.0,-999.0,14,-99.99,,,0.00,0.0,cwc,2013-05-13 22:30:00,
2013-05-13 16:35:00,78.6,48.4,29.87,SSE,157,13.0,-999.0,16,-99.99,,,0.00,0.0,cwc,2013-05-13 22:35:00,
2013-05-13 16:40:00,78.6,48.0,29.87,ESE,117,15.0,-999.0,15,-99.99,,,0.00,0.0,cwc,2013-05-13 22:40:00,
2013-05-13 16:45:00,78.1,47.9,29.87,ESE,113,13.0,-999.0,16,-99.99,,,0.00,0.0,cwc,2013-05-13 22:45:00,
2013-05-13 16:50:00,78.3,48.1,29.88,ESE,107,10.0,-999.0,16,-99.99,,,0.00,0.0,cwc,2013-05-13 22:50:00,
2013-05-13 16:55:00,78.3,48.1,29.88,SE,136,10.0,-999.0,16,-99.99,,,0.00,0.0,cwc,2013-05-13 22:55:00,
2013-05-13 17:00:00,77.9,47.7,29.88,SSE,152,10.0,-999.0,16,-99.99,,,0.00,0.0,cwc,2013-05-13 23:00:00,
2013-05-13 17:05:00,77.9,47.3,29.88,SSE,155,8.0,-999.0,15,-99.99,,,0.00,0.0,cwc,2013-05-13 23:05:00,
2013-05-13 17:10:00,77.9,48.0,29.88,SE,128,9.0,-999.0,17,-99.99,,,0.00,0.0,cwc,2013-05-13 23:10:00,
2013-05-13 17:15:00,78.1,47.9,29.88,East,80,6.0,-999.0,16,-99.99,,,0.00,0.0,cwc,2013-05-13 23:15:00,
2013-05-13 17:20:00,77.9,48.0,29.88,SE,128,9.0,-999.0,17,-99.99,,,0.00,0.0,cwc,2013-05-13 23:20:00,
2013-05-13 17:25:00,77.7,47.8,29.88,East,96,4.0,-999.0,17,-99.99,,,0.00,0.0,cwc,2013-05-13 23:25:00,
2013-05-13 17:30:00,77.7,47.8,29.88,ESE,117,4.0,-999.0,17,-99.99,,,0.00,0.0,cwc,2013-05-13 23:30:00,
2013-05-13 17:35:00,77.4,47.5,29.88,ENE,58,9.0,-999.0,17,-99.99,,,0.00,0.0,cwc,2013-05-13 23:35:00,
2013-05-13 17:40:00,76.8,46.9,29.88,ENE,71,6.0,-999.0,17,-99.99,,,0.00,0.0,cwc,2013-05-13 23:40:00,
2013-05-13 17:45:00,76.7,46.8,29.88,ENE,69,13.0,-999.0,17,-99.99,,,0.00,0.0,cwc,2013-05-13 23:45:00,
2013-05-13 17:50:00,76.5,46.6,29.88,NE,55,6.0,-999.0,17,-99.99,,,0.00,0.0,cwc,2013-05-13 23:50:00,
2013-05-13 17:55:00,76.5,46.6,29.88,ESE,112,1.0,-999.0,17,-99.99,,,0.00,0.0,cwc,2013-05-13 23:55:00,
2013-05-13 18:00:00,76.5,46.6,29.88,East,93,1.0,-999.0,17,-99.99,,,0.00,0.0,cwc,2013-05-14 00:00:00,
2013-05-13 18:05:00,76.5,46.6,29.88,East,93,2.0,-999.0,17,-99.99,,,0.00,0.0,cwc,2013-05-14 00:05:00,
2013-05-13 18:10:00,75.8,45.9,29.88,NNE,20,18.0,-999.0,17,-99.99,,,0.00,0.0,cwc,2013-05-14 00:10:00,
2013-05-13 18:15:00,75.8,45.9,29.88,NW,322,0.0,-999.0,17,-99.99,,,0.00,0.0,cwc,2013-05-14 00:15:00,
2013-05-13 18:20:00,76.0,45.8,29.89,North,0,2.0,-999.0,16,-99.99,,,0.00,0.0,cwc,2013-05-14 00:20:00,
2013-05-13 18:25:00,75.6,46.1,29.89,NE,47,9.0,-999.0,18,-99.99,,,0.00,0.0,cwc,2013-05-14 00:25:00,
2013-05-13 18:30:00,75.1,45.9,29.89,North,359,0.0,-999.0,19,-99.99,,,0.00,0.0,cwc,2013-05-14 00:30:00,
2013-05-13 18:35:00,75.1,45.9,29.88,ENE,58,4.0,-999.0,19,-99.99,,,0.00,0.0,cwc,2013-05-14 00:35:00,
2013-05-13 18:40:00,74.9,45.7,29.88,NNE,23,7.0,-999.0,19,-99.99,,,0.00,0.0,cwc,2013-05-14 00:40:00,
2013-05-13 18:45:00,74.9,45.7,29.88,NNE,28,1.0,-999.0,19,-99.99,,,0.00,0.0,cwc,2013-05-14 00:45:00,
2013-05-13 18:50:00,74.7,45.5,29.87,NNE,27,4.0,-999.0,19,-99.99,,,0.00,0.0,cwc,2013-05-14 00:50:00,
2013-05-13 18:55:00,74.7,45.5,29.87,NE,47,0.0,-999.0,19,-99.99,,,0.00,0.0,cwc,2013-05-14 00:55:00,
2013-05-13 19:00:00,74.7,45.9,29.87,NE,54,6.0,-999.0,20,-99.99,,,0.00,0.0,cwc,2013-05-14 01:00:00,
2013-05-13 19:05:00,74.6,45.4,29.88,ENE,71,0.0,-999.0,19,-99.99,,,0.00,0.0,cwc,2013-05-14 01:05:00,
2013-05-13 19:10:00,74.6,45.4,29.88,ENE,71,0.0,-999.0,19,-99.99,,,0.00,0.0,cwc,2013-05-14 01:10:00,
2013-05-13 19:15:00,74.4,45.2,29.88,ENE,68,2.0,-999.0,19,-99.99,,,0.00,0.0,cwc,2013-05-14 01:15:00,
2013-05-13 19:20:00,74.2,45.0,29.82,ENE,62,4.0,-999.0,19,-99.99,,,0.00,0.0,cwc,2013-05-14 01:20:00,
2013-05-13 19:25:00,74.2,44.7,29.82,NE,54,6.0,-999.0,18,-99.99,,,0.00,0.0,cwc,2013-05-14 01:25:00,
2013-05-13 19:30:00,74.0,44.8,29.82,NE,45,6.0,-999.0,19,-99.99,,,0.00,0.0,cwc,2013-05-14 01:30:00,
2013-05-13 19:35:00,73.9,44.7,29.83,NE,55,9.0,-999.0,19,-99.99,,,0.00,0.0,cwc,2013-05-14 01:35:00,
2013-05-13 19:40:00,73.7,44.5,29.83,East,79,6.0,-999.0,19,-99.99,,,0.00,0.0,cwc,2013-05-14 01:40:00,
2013-05-13 19:45:00,73.5,44.3,29.83,East,80,8.0,-999.0,19,-99.99,,,0.00,0.0,cwc,2013-05-14 01:45:00,
2013-05-13 19:50:00,73.2,44.4,29.85,ENE,61,0.0,-999.0,20,-99.99,,,0.00,0.0,cwc,2013-05-14 01:50:00,
2013-05-13 19:55:00,72.8,44.7,29.85,East,86,0.0,-999.0,22,-99.99,,,0.00,0.0,cwc,2013-05-14 01:55:00,
2013-05-13 20:00:00,72.7,44.3,29.85,East,100,2.0,-999.0,21,-99.99,,,0.00,0.0,cwc,2013-05-14 02:00:00,
2013-05-13 20:05:00,72.3,43.9,29.85,East,99,4.0,-999.0,21,-99.99,,,0.00,0.0,cwc,2013-05-14 02:05:00,
2013-05-13 20:10:00,72.1,43.7,29.85,East,100,0.0,-999.0,21,-99.99,,,0.00,0.0,cwc,2013-05-14 02:10:00,
2013-05-13 20:15:00,72.0,43.6,29.85,East,100,0.0,-999.0,21,-99.99,,,0.00,0.0,cwc,2013-05-14 02:15:00,
2013-05-13 20:20:00,71.8,43.7,29.81,East,100,0.0,-999.0,22,-99.99,,,0.00,0.0,cwc,2013-05-14 02:20:00,
2013-05-13 20:25:00,71.5,43.4,29.81,East,100,0.0,-999.0,22,-99.99,,,0.00,0.0,cwc,2013-05-14 02:25:00,
2013-05-13 20:30:00,70.9,43.2,29.81,East,100,0.0,-999.0,23,-99.99,,,0.00,0.0,cwc,2013-05-14 02:30:00,
2013-05-13 20:35:00,70.4,42.7,29.81,East,100,0.0,-999.0,23,-99.99,,,0.00,0.0,cwc,2013-05-14 02:35:00,
2013-05-13 20:40:00,70.3,42.9,29.81,East,100,0.0,-999.0,24,-99.99,,,0.00,0.0,cwc,2013-05-14 02:40:00,
2013-05-13 20:45:00,70.1,42.7,29.81,East,100,0.0,-999.0,24,-99.99,,,0.00,0.0,cwc,2013-05-14 02:45:00,
2013-05-13 20:50:00,69.9,42.5,29.82,East,100,0.0,-999.0,24,-99.99,,,0.00,0.0,cwc,2013-05-14 02:50:00,
2013-05-13 20:55:00,69.1,42.1,29.82,East,100,0.0,-999.0,25,-99.99,,,0.00,0.0,cwc,2013-05-14 02:55:00,
2013-05-13 21:00:00,68.6,41.6,29.82,East,100,0.0,-999.0,25,-99.99,,,0.00,0.0,cwc,2013-05-14 03:00:00,
2013-05-13 21:05:00,68.3,41.3,29.84,East,100,0.0,-999.0,25,-99.99,,,0.00,0.0,cwc,2013-05-14 03:05:00,
2013-05-13 21:10:00,67.8,41.2,29.84,East,100,0.0,-999.0,26,-99.99,,,0.00,0.0,cwc,2013-05-14 03:10:00,
2013-05-13 21:15:00,67.6,41.0,29.84,East,100,0.0,-999.0,26,-99.99,,,0.00,0.0,cwc,2013-05-14 03:15:00,
2013-05-13 21:20:00,66.9,40.6,29.82,East,100,0.0,-999.0,27,-99.99,,,0.00,0.0,cwc,2013-05-14 03:20:00,
2013-05-13 21:25:00,66.8,40.5,29.82,East,100,0.0,-999.0,27,-99.99,,,0.00,0.0,cwc,2013-05-14 03:25:00,
2013-05-13 21:30:00,66.6,40.3,29.82,East,100,0.0,-999.0,27,-99.99,,,0.00,0.0,cwc,2013-05-14 03:30:00,
2013-05-13 21:35:00,66.3,40.0,29.83,East,100,6.0,-999.0,27,-99.99,,,0.00,0.0,cwc,2013-05-14 03:35:00,
2013-05-13 21:40:00,66.1,39.8,29.83,East,100,1.0,-999.0,27,-99.99,,,0.00,0.0,cwc,2013-05-14 03:40:00,
2013-05-13 21:45:00,66.0,40.1,29.83,East,100,0.0,-999.0,28,-99.99,,,0.00,0.0,cwc,2013-05-14 03:45:00,
2013-05-13 21:50:00,65.6,39.7,29.83,East,100,0.0,-999.0,28,-99.99,,,0.00,0.0,cwc,2013-05-14 03:50:00,
2013-05-13 21:55:00,65.2,39.3,29.83,East,100,0.0,-999.0,28,-99.99,,,0.00,0.0,cwc,2013-05-14 03:55:00,
2013-05-13 22:00:00,64.8,38.9,29.83,East,100,0.0,-999.0,28,-99.99,,,0.00,0.0,cwc,2013-05-14 04:00:00,
2013-05-13 22:05:00,64.3,38.7,29.83,East,100,0.0,-999.0,29,-99.99,,,0.00,0.0,cwc,2013-05-14 04:05:00,
2013-05-13 22:10:00,64.0,38.4,29.83,East,99,0.0,-999.0,29,-99.99,,,0.00,0.0,cwc,2013-05-14 04:10:00,
2013-05-13 22:15:00,63.9,38.7,29.83,East,96,4.0,-999.0,30,-99.99,,,0.00,0.0,cwc,2013-05-14 04:15:00,
2013-05-13 22:20:00,63.7,38.5,29.82,ENE,75,0.0,-999.0,30,-99.99,,,0.00,0.0,cwc,2013-05-14 04:20:00,
2013-05-13 22:25:00,63.7,38.5,29.82,ENE,75,1.0,-999.0,30,-99.99,,,0.00,0.0,cwc,2013-05-14 04:25:00,
2013-05-13 22:30:00,63.4,38.2,29.82,ENE,72,1.0,-999.0,30,-99.99,,,0.00,0.0,cwc,2013-05-14 04:30:00,
2013-05-13 22:35:00,63.4,37.8,29.83,East,96,0.0,-999.0,29,-99.99,,,0.00,0.0,cwc,2013-05-14 04:35:00,
2013-05-13 22:40:00,63.2,38.0,29.83,East,100,0.0,-999.0,30,-99.99,,,0.00,0.0,cwc,2013-05-14 04:40:00,
2013-05-13 22:45:00,63.1,38.3,29.83,East,100,0.0,-999.0,31,-99.99,,,0.00,0.0,cwc,2013-05-14 04:45:00,
2013-05-13 22:50:00,62.7,37.9,29.82,East,96,1.0,-999.0,31,-99.99,,,0.00,0.0,cwc,2013-05-14 04:50:00,
2013-05-13 22:55:00,62.4,37.6,29.82,East,96,0.0,-999.0,31,-99.99,,,0.00,0.0,cwc,2013-05-14 04:55:00,
2013-05-13 23:00:00,62.3,37.5,29.82,East,96,0.0,-999.0,31,-99.99,,,0.00,0.0,cwc,2013-05-14 05:00:00,
2013-05-13 23:05:00,62.1,37.6,29.84,East,96,0.0,-999.0,32,-99.99,,,0.00,0.0,cwc,2013-05-14 05:05:00,
2013-05-13 23:10:00,61.8,37.3,29.84,East,96,0.0,-999.0,32,-99.99,,,0.00,0.0,cwc,2013-05-14 05:10:00,
2013-05-13 23:15:00,61.3,36.8,29.84,East,96,0.0,-999.0,32,-99.99,,,0.00,0.0,cwc,2013-05-14 05:15:00,
2013-05-13 23:20:00,60.9,36.8,29.81,East,96,0.0,-999.0,33,-99.99,,,0.00,0.0,cwc,2013-05-14 05:20:00,
2013-05-13 23:25:00,60.9,36.8,29.81,East,96,0.0,-999.0,33,-99.99,,,0.00,0.0,cwc,2013-05-14 05:25:00,
2013-05-13 23:30:00,60.4,36.6,29.81,East,96,0.0,-999.0,34,-99.99,,,0.00,0.0,cwc,2013-05-14 05:30:00,
2013-05-13 23:35:00,60.1,36.3,29.82,East,96,0.0,-999.0,34,-99.99,,,0.00,0.0,cwc,2013-05-14 05:35:00,
2013-05-13 23:40:00,59.6,36.2,29.82,East,96,0.0,-999.0,35,-99.99,,,0.00,0.0,cwc,2013-05-14 05:40:00,
2013-05-13 23:45:00,59.3,36.3,29.82,East,96,0.0,-999.0,36,-99.99,,,0.00,0.0,cwc,2013-05-14 05:45:00,
2013-05-13 23:50:00,58.9,35.9,29.82,East,96,0.0,-999.0,36,-99.99,,,0.00,0.0,cwc,2013-05-14 05:50:00,
2013-05-13 23:55:00,58.6,35.6,29.82,East,96,0.0,-999.0,36,-99.99,,,0.00,0.0,cwc,2013-05-14 05:55:00,